User: anonymous   Login
Location: Bédeille
(43.0872°N, 1.1041°E)
Time: 00:30:57
(UTC+00:00)
Language:

Cosmos 1932 - Orbit

View from above orbital plane
View from above orbital plane
View from above satellite
View from above satellite

Ground track
Ground track

The orbit data is extracted from the following two-line orbital elements,

1 18957U 88019A   24144.78644709 -.00000035  00000-0  50278-4 0  9991
2 18957  65.0448 270.2523 0033940 144.5995 215.7326 13.79752389825067
Epoch (UTC): 23 May 2024 18:52:29
Eccentricity: 0.0033940
inclination: 65.0448°
perigee height: 940 km
apogee height: 989 km
right ascension of ascending node: 270.2523°
argument of perigee: 144.5995°
revolutions per day: 13.79752389
mean anomaly at epoch: 215.7326°
orbit number at epoch: 82506

The dashed part of the orbit path shows where the satellite is in the earth's shadow,  

DLR